This is the latest recevied weather packets stored in our database for station/object N4CRH-13. If no packets are shown the sender has not sent any weather packets the latest 10 day(s).
| Time | Temp. | Humidity | Pressure | Rain* | Wind** | Luminosity | Snow |
|---|---|---|---|---|---|---|---|
| 1778034905 | -2.22° C | 99% | 1290.9 hPa | 0 mm | - | 0 W/m² | - |
| 1778034603 | -2.22° C | 99% | 1290.9 hPa | 0 mm | - | 0 W/m² | - |
| 1778034300 | -2.22° C | 99% | 1290.9 hPa | 0 mm | - | 0 W/m² | - |
| 1778033997 | -2.22° C | 99% | 1290.7 hPa | 0 mm | - | 0 W/m² | - |
| 1778033695 | -2.22° C | 99% | 1290.7 hPa | 0 mm | - | 0 W/m² | - |
| 1778033392 | -2.22° C | 99% | 1290.6 hPa | 0 mm | - | 0 W/m² | - |
| 1778033089 | -2.22° C | 99% | 1290.6 hPa | 0 mm | - | 0 W/m² | - |
| 1778032786 | -1.67° C | 99% | 1290.6 hPa | 0 mm | - | 1 W/m² | - |
| 1778032180 | -1.67° C | 99% | 1290.7 hPa | 0 mm | - | 4 W/m² | - |
| 1778031574 | -1.67° C | 99% | 1290.3 hPa | 0 mm | - | 10 W/m² | - |
| 1778031272 | -2.22° C | 99% | 1290.3 hPa | 0 mm | - | 9 W/m² | - |
| 1778030968 | -2.22° C | 99% | 1290.1 hPa | 0 mm | - | 11 W/m² | - |
| 1778029455 | -1.67° C | 99% | 1290.1 hPa | 0 mm | - | 11 W/m² | - |
| 1778027937 | -1.11° C | 99% | 1290.1 hPa | 0 mm | - | 16 W/m² | - |
| 1778027329 | -1.11° C | 99% | 1290.1 hPa | 0 mm | - | 12 W/m² | - |
| 1778027026 | -1.11° C | 99% | 1289.8 hPa | 0 mm | - | 10 W/m² | - |
| 1778026722 | -0.56° C | 99% | 1289.8 hPa | 0 mm | - | 11 W/m² | - |
| 1778021569 | 0.56° C | 99% | 1288.6 hPa | 0 mm | - | 60 W/m² | - |
| 1778020962 | 0.56° C | 99% | 1288.6 hPa | 1.27 mm | - | 43 W/m² | - |
| 1778020659 | 0.56° C | 99% | 1288.5 hPa | 0 mm | - | 51 W/m² | - |
| 1778019445 | 0.56° C | 99% | 1288.6 hPa | 0 mm | - | 62 W/m² | - |
| 1778018536 | 0.56° C | 99% | 1288.5 hPa | 0 mm | - | 88 W/m² | - |
| 1778016721 | 1.11° C | 99% | 1289 hPa | 0 mm | - | 107 W/m² | - |
| 1778015810 | 1.67° C | 99% | 1289.1 hPa | 1.27 mm | - | 109 W/m² | - |
| 1778015510 | 1.67° C | 99% | 1289.1 hPa | 0 mm | - | 146 W/m² | - |
* Rain latest hour (hover to see other rain measurements)
** Current wind speed in m/s (hover to see current wind gust speed)